Regional Weather Roundup
Issued by NWS

Home | Current Version | Previous Version | Graphics & Text | Print | Product List | Glossary On
Versions: 1 2 3 4 5 6 7 8 9 10 11 12 13 14 15 16 17 18 19 20 21 22 23 24 25 26 27 28 29 30 31 32 33 34 35 36 37 38 39 40 41 42 43 44 45 46 47 48 49 50
000
ASUS43 KTOP 270259
RWRKS

WEATHER ROUNDUP FOR KANSAS
NATIONAL WEATHER SERVICE GOODLAND KS
900 PM CST SUN FEB 26 2017

NOTE:  "FAIR" INDICATES FEW OR NO CLOUDS BELOW 12,000 FEET WITH NO
SIGNIFICANT WEATHER AND/OR OBSTRUCTIONS TO VISIBILITY.

KSZ001>006-013>018-027>032-041>047-270400-
NORTHWEST KANSAS

CITY           SKY/WX    TMP DP  RH WIND       PRES   REMARKS
GOODLAND       FAIR      28   7  41 SE10      29.85S WCI  19
HAYS           FAIR      29  10  45 E3        29.97R
HILL CITY      FAIR      25   7  46 CALM      29.95S
RUSSELL        FAIR      33   6  32 E8        29.96R
$$

KSZ061>065-074>080-084>089-270400-
SOUTHWEST KANSAS

CITY           SKY/WX    TMP DP  RH WIND       PRES   REMARKS
DODGE CITY     FAIR      35  15  44 E10       29.92F WCI  27
ELKHART          N/A     36   7  30 E13         N/A  WCI  27
GARDEN CITY    FAIR      33  10  38 E12       29.89F WCI  24
GREAT BEND     FAIR      36  14  40 E8        29.98R
LIBERAL        FAIR      43  10  26 E12       29.88S
$$

KSZ066>073-081>083-090>101-270400-
SOUTHEAST KANSAS

CITY           SKY/WX    TMP DP  RH WIND       PRES   REMARKS
CHANUTE        FAIR      38  33  82 E6        30.03R
COFFEYVILLE    FAIR      37  32  82 NE8       30.02R
HUTCHINSON     FAIR      36  22  56 NE7       29.98S
MEDICINE LODGE   N/A     40  23  50 E7        29.96F
NEWTON         FAIR      41  24  51 NE7       29.99S
PARSONS        FAIR      39  33  79 NE3       30.04R
WICHITA INTL   FAIR      41  25  53 E6        29.98S
WICHITA JABRA  FAIR      41  26  55 CALM      29.99R
WINFIELD       FAIR      43  27  53 NE5       30.00R
$$

KSZ007>012-019>026-033>040-048>060-102>105-270400-
NORTHEAST KANSAS

CITY           SKY/WX    TMP DP  RH WIND       PRES   REMARKS
CONCORDIA      FAIR      36  10  34 SE3       29.98R
EMPORIA        FAIR      34  26  72 S8        30.00R
LAWRENCE       FAIR      36  33  89 SE7       30.02R
MANHATTAN      FAIR      31  23  72 CALM      30.00R
OLATHE IND     FAIR      36  33  89 SE7       30.03R
OLATHE EXE     FAIR      36  36 100 S8        30.03R
SALINA         FAIR      32  20  61 S5        30.00R
TOPEKA BILLARD FAIR      36  28  73 SE7       30.00R
TOPEKA FORBES  FAIR      38  26  62 SE10      30.00R WCI  31
$$




USA.gov is the U.S. government's official web portal to all federal, state and local government web resources and services.